Time,TemperatureF,DewpointF,PressureIn,WindDirection,WindDirectionDegrees,WindSpeedMPH,WindSpeedGustMPH,Humidity,HourlyPrecipIn,Conditions,Clouds,dailyrainin,SolarRadiationWatts/m^2,SoftwareType,DateUTC
2013-02-07 00:01:00,41.0,37.0,-100.00,SSE,162,8.0,16.0,87,0.10,,,0.53,1.000000,,2013-02-07 08:01:00,
2013-02-07 00:32:00,39.0,36.0,-100.00,SSE,160,8.0,13.0,89,0.05,,,0.58,1.000000,,2013-02-07 08:32:00,
2013-02-07 00:42:00,39.0,36.0,-100.00,SSE,160,8.0,13.0,89,0.05,,,0.58,1.000000,,2013-02-07 08:42:00,
2013-02-07 00:52:00,39.0,36.0,-100.00,SSE,160,8.0,13.0,89,0.05,,,0.58,1.000000,,2013-02-07 08:52:00,
2013-02-07 01:01:00,39.0,36.0,-100.00,SSE,160,8.0,13.0,89,0.05,,,0.58,1.000000,,2013-02-07 09:01:00,
2013-02-07 01:32:00,40.0,37.0,-100.00,SSE,162,10.0,16.0,90,0.03,,,0.61,1.000000,,2013-02-07 09:32:00,
2013-02-07 01:42:00,40.0,37.0,-100.00,SSE,162,10.0,16.0,90,0.03,,,0.61,1.000000,,2013-02-07 09:42:00,
2013-02-07 01:52:00,40.0,37.0,-100.00,SSE,162,10.0,16.0,90,0.03,,,0.61,1.000000,,2013-02-07 09:52:00,
2013-02-07 02:01:00,40.0,37.0,-100.00,SSE,162,10.0,16.0,90,0.03,,,0.61,1.000000,,2013-02-07 10:01:00,
2013-02-07 02:32:00,40.0,38.0,-100.00,SSE,155,6.0,15.0,91,0.03,,,0.64,1.000000,,2013-02-07 10:32:00,
2013-02-07 02:42:00,40.0,38.0,-100.00,SSE,155,6.0,15.0,91,0.03,,,0.64,1.000000,,2013-02-07 10:42:00,
2013-02-07 02:52:00,40.0,38.0,-100.00,SSE,155,6.0,15.0,91,0.03,,,0.64,1.000000,,2013-02-07 10:52:00,
2013-02-07 03:01:00,40.0,38.0,-100.00,SSE,155,6.0,15.0,91,0.03,,,0.64,1.000000,,2013-02-07 11:01:00,
2013-02-07 03:32:00,39.0,37.0,-100.00,SSE,158,7.0,12.0,91,0.00,,,0.61,1.000000,,2013-02-07 11:32:00,
2013-02-07 03:44:00,39.0,37.0,-100.00,SSE,158,7.0,12.0,91,0.00,,,0.61,1.000000,,2013-02-07 11:44:00,
2013-02-07 03:52:00,39.0,37.0,-100.00,SSE,158,7.0,12.0,91,0.00,,,0.61,1.000000,,2013-02-07 11:52:00,
2013-02-07 04:01:00,39.0,37.0,-100.00,SSE,158,7.0,12.0,91,0.00,,,0.61,1.000000,,2013-02-07 12:01:00,
2013-02-07 04:33:00,39.0,37.0,-100.00,SSE,167,5.0,10.0,91,0.00,,,0.61,1.000000,,2013-02-07 12:33:00,
2013-02-07 04:42:00,39.0,37.0,-100.00,SSE,167,5.0,10.0,91,0.00,,,0.61,1.000000,,2013-02-07 12:42:00,
2013-02-07 04:53:00,39.0,37.0,-100.00,SSE,167,5.0,10.0,91,0.00,,,0.61,1.000000,,2013-02-07 12:53:00,
2013-02-07 05:02:00,39.0,37.0,-100.00,SSE,167,5.0,10.0,91,0.00,,,0.61,1.000000,,2013-02-07 13:02:00,
2013-02-07 05:32:00,39.0,37.0,-100.00,SE,146,5.0,9.0,91,0.00,,,0.59,1.000000,,2013-02-07 13:32:00,
2013-02-07 05:42:00,39.0,37.0,-100.00,SE,146,5.0,9.0,91,0.00,,,0.59,1.000000,,2013-02-07 13:42:00,
2013-02-07 05:52:00,39.0,37.0,-100.00,SE,146,5.0,9.0,91,0.00,,,0.59,1.000000,,2013-02-07 13:52:00,
2013-02-07 06:01:00,39.0,37.0,-100.00,SE,146,5.0,9.0,91,0.00,,,0.59,1.000000,,2013-02-07 14:01:00,
2013-02-07 06:32:00,38.0,36.0,-100.00,SE,142,4.0,8.0,91,0.01,,,0.57,1.000000,,2013-02-07 14:32:00,
2013-02-07 06:42:00,38.0,36.0,-100.00,SE,142,4.0,8.0,91,0.01,,,0.57,1.000000,,2013-02-07 14:42:00,
2013-02-07 06:52:00,38.0,36.0,-100.00,SE,142,4.0,8.0,91,0.01,,,0.57,1.000000,,2013-02-07 14:52:00,
2013-02-07 07:01:00,38.0,36.0,-100.00,SE,142,4.0,8.0,91,0.01,,,0.57,1.000000,,2013-02-07 15:01:00,
2013-02-07 07:32:00,39.0,37.0,-100.00,SSE,151,8.0,16.0,91,0.04,,,0.58,1.000000,,2013-02-07 15:32:00,
2013-02-07 07:42:00,39.0,37.0,-100.00,SSE,151,8.0,16.0,91,0.04,,,0.58,1.000000,,2013-02-07 15:42:00,
2013-02-07 07:52:00,39.0,37.0,-100.00,SSE,151,8.0,16.0,91,0.04,,,0.58,1.000000,,2013-02-07 15:52:00,
2013-02-07 08:01:00,39.0,37.0,-100.00,SSE,151,8.0,16.0,91,0.04,,,0.58,1.000000,,2013-02-07 16:01:00,
2013-02-07 08:32:00,39.0,36.0,-100.00,SSE,155,5.0,16.0,90,0.00,,,0.58,6.000000,,2013-02-07 16:32:00,
2013-02-07 08:42:00,39.0,36.0,-100.00,SSE,155,5.0,16.0,90,0.00,,,0.58,6.000000,,2013-02-07 16:42:00,
2013-02-07 08:52:00,39.0,36.0,-100.00,SSE,155,5.0,16.0,90,0.00,,,0.58,6.000000,,2013-02-07 16:52:00,
2013-02-07 09:01:00,39.0,36.0,-100.00,SSE,155,5.0,16.0,90,0.00,,,0.58,6.000000,,2013-02-07 17:01:00,
2013-02-07 09:32:00,40.0,37.0,-100.00,SSE,162,7.0,11.0,90,0.05,,,0.63,48.000000,,2013-02-07 17:32:00,
2013-02-07 09:43:00,40.0,37.0,-100.00,SSE,162,7.0,11.0,90,0.05,,,0.63,48.000000,,2013-02-07 17:43:00,
2013-02-07 09:52:00,40.0,37.0,-100.00,SSE,162,7.0,11.0,90,0.05,,,0.63,48.000000,,2013-02-07 17:52:00,
2013-02-07 10:01:00,40.0,37.0,-100.00,SSE,162,7.0,11.0,90,0.05,,,0.63,48.000000,,2013-02-07 18:01:00,
2013-02-07 10:32:00,41.0,38.0,-100.00,SSE,158,8.0,13.0,88,0.01,,,0.63,159.000000,,2013-02-07 18:32:00,
2013-02-07 10:42:00,41.0,38.0,-100.00,SSE,158,8.0,13.0,88,0.01,,,0.63,159.000000,,2013-02-07 18:42:00,
2013-02-07 10:52:00,41.0,38.0,-100.00,SSE,158,8.0,13.0,88,0.01,,,0.63,159.000000,,2013-02-07 18:52:00,
2013-02-07 11:01:00,41.0,38.0,-100.00,SSE,158,8.0,13.0,88,0.01,,,0.63,159.000000,,2013-02-07 19:01:00,
2013-02-07 11:32:00,39.0,36.0,-100.00,SSE,167,9.0,20.0,88,0.01,,,0.63,138.000000,,2013-02-07 19:32:00,
2013-02-07 11:42:00,39.0,36.0,-100.00,SSE,167,9.0,20.0,88,0.01,,,0.63,138.000000,,2013-02-07 19:42:00,
2013-02-07 11:52:00,39.0,36.0,-100.00,SSE,167,9.0,20.0,88,0.01,,,0.63,138.000000,,2013-02-07 19:52:00,
2013-02-07 12:01:00,39.0,36.0,-100.00,SSE,167,9.0,20.0,88,0.01,,,0.63,138.000000,,2013-02-07 20:01:00,
2013-02-07 12:22:00,39.0,36.0,-100.00,SSE,163,7.0,14.0,88,0.07,,,0.70,84.000000,,2013-02-07 20:22:00,
2013-02-07 12:32:00,39.0,36.0,-100.00,SSE,163,7.0,14.0,88,0.07,,,0.70,84.000000,,2013-02-07 20:32:00,
2013-02-07 12:42:00,39.0,36.0,-100.00,SSE,163,7.0,14.0,88,0.07,,,0.70,84.000000,,2013-02-07 20:42:00,
2013-02-07 12:52:00,39.0,36.0,-100.00,SSE,163,7.0,14.0,88,0.07,,,0.70,84.000000,,2013-02-07 20:52:00,
2013-02-07 13:01:00,39.0,36.0,-100.00,SSE,163,7.0,14.0,88,0.07,,,0.70,84.000000,,2013-02-07 21:01:00,
2013-02-07 13:32:00,41.0,37.0,-100.00,SSE,157,6.0,14.0,87,0.01,,,0.71,235.000000,,2013-02-07 21:32:00,
2013-02-07 13:42:00,41.0,37.0,-100.00,SSE,157,6.0,14.0,87,0.01,,,0.71,235.000000,,2013-02-07 21:42:00,
2013-02-07 13:52:00,41.0,37.0,-100.00,SSE,157,6.0,14.0,87,0.01,,,0.71,235.000000,,2013-02-07 21:52:00,
2013-02-07 14:01:00,41.0,37.0,-100.00,SSE,157,6.0,14.0,87,0.01,,,0.71,235.000000,,2013-02-07 22:01:00,
2013-02-07 14:32:00,44.0,39.0,-100.00,SSE,168,5.0,12.0,84,0.00,,,0.71,248.000000,,2013-02-07 22:32:00,
2013-02-07 14:42:00,44.0,39.0,-100.00,SSE,168,5.0,12.0,84,0.00,,,0.71,248.000000,,2013-02-07 22:42:00,
2013-02-07 14:52:00,44.0,39.0,-100.00,SSE,168,5.0,12.0,84,0.00,,,0.71,248.000000,,2013-02-07 22:52:00,
2013-02-07 15:01:00,44.0,39.0,-100.00,SSE,168,5.0,12.0,84,0.00,,,0.71,248.000000,,2013-02-07 23:01:00,
2013-02-07 15:32:00,42.0,38.0,-100.00,South,181,5.0,12.0,85,0.01,,,0.72,151.000000,,2013-02-07 23:32:00,
2013-02-07 15:42:00,42.0,38.0,-100.00,South,181,5.0,12.0,85,0.01,,,0.72,151.000000,,2013-02-07 23:42:00,
2013-02-07 15:52:00,42.0,38.0,-100.00,South,181,5.0,12.0,85,0.01,,,0.72,151.000000,,2013-02-07 23:52:00,
2013-02-07 16:01:00,42.0,38.0,-100.00,South,181,5.0,12.0,85,0.01,,,0.72,151.000000,,2013-02-08 00:01:00,
2013-02-07 16:32:00,44.0,40.0,-100.00,SSE,164,2.0,8.0,86,0.00,,,0.70,90.000000,,2013-02-08 00:32:00,
2013-02-07 16:42:00,44.0,40.0,-100.00,SSE,164,2.0,8.0,86,0.00,,,0.70,90.000000,,2013-02-08 00:42:00,
2013-02-07 16:52:00,44.0,40.0,-100.00,SSE,164,2.0,8.0,86,0.00,,,0.70,90.000000,,2013-02-08 00:52:00,
2013-02-07 17:01:00,44.0,40.0,-100.00,SSE,164,2.0,8.0,86,0.00,,,0.70,90.000000,,2013-02-08 01:01:00,
2013-02-07 18:32:00,38.0,35.0,-100.00,SSE,153,0.0,6.0,88,-99.99,,,0.69,9.000000,,2013-02-08 02:32:00,
2013-02-07 18:42:00,38.0,35.0,-100.00,SSE,153,0.0,6.0,88,-99.99,,,0.69,9.000000,,2013-02-08 02:42:00,
2013-02-07 18:52:00,38.0,35.0,-100.00,SSE,153,0.0,6.0,88,-99.99,,,0.69,9.000000,,2013-02-08 02:52:00,
2013-02-07 19:01:00,38.0,35.0,-100.00,SSE,153,0.0,6.0,88,-99.99,,,0.69,9.000000,,2013-02-08 03:01:00,
2013-02-07 19:32:00,38.0,36.0,-100.00,East,100,0.0,0.0,91,0.01,,,0.70,1.000000,,2013-02-08 03:32:00,
2013-02-07 19:42:00,38.0,36.0,-100.00,East,100,0.0,0.0,91,0.01,,,0.70,1.000000,,2013-02-08 03:42:00,
2013-02-07 19:52:00,38.0,36.0,-100.00,East,100,0.0,0.0,91,0.01,,,0.70,1.000000,,2013-02-08 03:52:00,
2013-02-07 20:01:00,38.0,36.0,-100.00,East,100,0.0,0.0,91,0.01,,,0.70,1.000000,,2013-02-08 04:01:00,
2013-02-07 20:32:00,40.0,38.0,-100.00,ENE,68,0.0,4.0,93,0.00,,,0.67,1.000000,,2013-02-08 04:32:00,
2013-02-07 20:42:00,40.0,38.0,-100.00,ENE,68,0.0,4.0,93,0.00,,,0.67,1.000000,,2013-02-08 04:42:00,
2013-02-07 20:52:00,40.0,38.0,-100.00,ENE,68,0.0,4.0,93,0.00,,,0.67,1.000000,,2013-02-08 04:52:00,
2013-02-07 21:01:00,40.0,38.0,-100.00,ENE,68,0.0,4.0,93,0.00,,,0.67,1.000000,,2013-02-08 05:01:00,
2013-02-07 21:32:00,40.0,38.0,-100.00,East,79,0.0,4.0,93,0.00,,,0.53,1.000000,,2013-02-08 05:32:00,
2013-02-07 21:42:00,40.0,38.0,-100.00,East,79,0.0,4.0,93,0.00,,,0.53,1.000000,,2013-02-08 05:42:00,
2013-02-07 21:52:00,40.0,38.0,-100.00,East,79,0.0,4.0,93,0.00,,,0.53,1.000000,,2013-02-08 05:52:00,
2013-02-07 22:01:00,40.0,38.0,-100.00,East,79,0.0,4.0,93,0.00,,,0.53,1.000000,,2013-02-08 06:01:00,
2013-02-07 22:32:00,39.0,37.0,-100.00,ENE,66,0.0,5.0,93,0.00,,,0.43,1.000000,,2013-02-08 06:32:00,
2013-02-07 22:42:00,39.0,37.0,-100.00,ENE,66,0.0,5.0,93,0.00,,,0.43,1.000000,,2013-02-08 06:42:00,
2013-02-07 22:52:00,39.0,37.0,-100.00,ENE,66,0.0,5.0,93,0.00,,,0.43,1.000000,,2013-02-08 06:52:00,
2013-02-07 23:01:00,39.0,37.0,-100.00,ENE,66,0.0,5.0,93,0.00,,,0.43,1.000000,,2013-02-08 07:01:00,
2013-02-07 23:32:00,38.0,36.0,-100.00,ENE,67,0.0,4.0,93,0.00,,,0.33,1.000000,,2013-02-08 07:32:00,
2013-02-07 23:42:00,38.0,36.0,-100.00,ENE,67,0.0,4.0,93,0.00,,,0.33,1.000000,,2013-02-08 07:42:00,
2013-02-07 23:52:00,38.0,36.0,-100.00,ENE,67,0.0,4.0,93,0.00,,,0.33,1.000000,,2013-02-08 07:52:00,